This demonstration page uses our WeatherBlox Daily Observations layout. Learn more.

39.92423, -83.80882

Hourly Observations for September 5, 2019

Temp ( °F °C ) Dew Point ( °F °C ) Humidity (%) Winds ( mph kmh ) Pressure ( in mb ) Visibility ( mi km ) Precip ( " mm )
12:56 am 00:56 Clear 61 16.1 59 15 93 93 N 7 11 30.09 1019 10 16.09344 0 0
1:56 am 01:56 Clear 59 15 59 15 100 100 NNE 6 9 30.09 1019 10 16.09344 0 0
2:56 am 02:56 Clear 57 13.9 57 13.9 100 100 ENE 5 7 30.09 1019 10 16.09344 0 0
3:56 am 03:56 Clear 56 13.3 56 13.3 100 100 E 5 7 30.09 1019 10 16.09344 0 0
4:42 am 04:42 Clear with Mist and Fog 55 13 55 13 100 100 ENE 3 6 30.12 1020 1 1.609344 0 0
4:56 am 04:56 Clear with Mist and Fog 55 12.8 55 12.8 100 100 ENE 3 6 30.09 1019 1 1.609344 0 0
5:03 am 05:03 Clear with Mist and Fog 55 13 55 13 100 100 ENE 3 6 30.12 1020 3 4.828032 0 0
5:15 am 05:15 Clear with Mist and Fog 55 13 55 13 100 100 NE 5 7 30.12 1020 1.75 2.816352 0 0
5:26 am 05:26 Clear 55 13 55 13 100 100 NE 6 9 30.12 1020 7 11.265408 0 0
5:56 am 05:56 Clear with Mist and Fog 55 12.8 55 12.8 100 100 NE 5 7 30.09 1019 2.5 4.02336 0 0
6:02 am 06:02 Clear with Mist and Fog 55 13 55 13 100 100 NE 6 9 30.12 1020 1 1.609344 0 0
6:07 am 06:07 Clear with Mist and Fog 54 12 54 12 100 100 NNE 6 9 30.12 1020 2 3.218688 0 0
6:14 am 06:14 Partly Cloudy 54 12 54 12 100 100 NNE 6 9 30.12 1020 7 11.265408 0 0
6:56 am 06:56 Cloudy 55 12.8 55 12.8 100 100 ENE 5 7 30.12 1020 10 16.09344 0 0
7:56 am 07:56 Sunny with Mist and Fog 56 13.3 56 13.3 100 100 NE 6 9 30.12 1020 6 9.656064 0 0
8:56 am 08:56 Sunny 61 16.1 59 15 93 93 ENE 7 11 30.12 1020 10 16.09344 0 0
9:56 am 09:56 Sunny 65 18.3 57 13.9 76 76 ENE 9 15 30.15 1021 10 16.09344 0 0
10:56 am 10:56 Sunny 68 20 55 12.8 63 63 ENE 8 13 30.12 1020 10 16.09344 0 0
11:56 am 11:56 Sunny 70 21.1 54 12.2 57 57 NNE 8 13 30.12 1020 10 16.09344 0 0
12:56 pm 12:56 Sunny 72 22.2 54 12.2 53 53 ENE 8 13 30.12 1020 10 16.09344 0 0
1:56 pm 13:56 Sunny 73 22.8 55 12.8 53 53 ENE 14 22 30.09 1019 10 16.09344 0 0
2:56 pm 14:56 Sunny 74 23.3 55 12.8 52 52 VRB 6 9 30.06 1018 10 16.09344 0 0
3:56 pm 15:56 Sunny 75 23.9 56 13.3 52 52 ENE 7 11 30.06 1018 10 16.09344 0 0
4:56 pm 16:56 Sunny 76 24.4 57 13.9 52 52 N 12 19 30.06 1018 10 16.09344 0 0
5:56 pm 17:56 Sunny 75 23.9 58 14.4 55 55 NE 10 17 30.03 1017 10 16.09344 0 0
6:56 pm 18:56 Sunny 72 22.2 57 13.9 59 59 NE 9 15 30.03 1017 10 16.09344 0 0
7:56 pm 19:56 Sunny 66 18.9 56 13.3 70 70 NE 8 13 30.06 1018 10 16.09344 0 0
8:56 pm 20:56 Clear 61 16.1 55 12.8 81 81 NE 7 11 30.06 1018 10 16.09344 0 0
9:56 pm 21:56 Clear 61 16.1 56 13.3 84 84 N 6 9 30.06 1018 10 16.09344 0 0
10:56 pm 22:56 Clear 59 15 55 12.8 87 87 NE 8 13 30.06 1018 10 16.09344 0 0
11:56 pm 23:56 Clear 57 13.9 54 12.2 90 90 NE 6 9 30.03 1017 10 16.09344 0 0

Powered by AerisWeather